INTELSAT 22 (IS-22) (38098 NORAD) Tracking and Keplerian Element Data

This shows tracking and keplerian element data for the satellite.

Feedback or suggestion? Click here.




ElementValue
Catalog38098
NameINTELSAT 22 (IS-22)
Epoch Orbit2287
Epoch Day200.97280303
Epoch Year2018
RAAN24.609
Inclination0.0156
Eccentricity0.0002471
Argument of Perigee96.7622
Mean Anonmoly238.6529
Mean Motion1.00268195
Decay Rate-7.5E-07
L11 38098U 12011A 18200.97280303 -.00000075 00000-0 00000-0 0 9999
L22 38098 0.0156 24.6090 0002471 96.7622 238.6529 1.00268195 22875

Live tracking and technical data element details for INTELSAT 22 (IS-22) (NORAD 38098). INTELSAT 22 (IS-22) can be tracked NOW for your location showing map with azimuth and elevation plus other details from your city location.

Track the satellite on the map from your city or location and see movement details for azimuth, elevation, latitude, longitude, range, height, and movement on the map or in text.







IsCatalogInMostPopularTable: catalog: 38098, numindb: 43
Update: records affected: 1



GetName: 38098 INTELSAT 22 (IS-22)

Hit Count: updated at: Sat, 21 Jul 2018 07:54:06 GMT